Regional Weather Roundup
Issued by NWS

Home | Current Version | Previous Version | Graphics & Text | Print | Product List | Glossary On
Versions: 1 2 3 4 5 6 7 8 9 10 11 12 13 14 15 16 17 18 19 20 21 22 23 24 25 26 27
000
ASUS45 KPSR 152110
RWRAZ

ARIZONA HOURLY REGIONAL WEATHER ROUNDUP
NATIONAL WEATHER SERVICE PHOENIX AZ
200 PM MST MON JAN 15 2018

NOTE: FAIR INDICATES FEW OR NO CLOUDS BELOW 12,000 FEET WITH NO
SIGNIFICANT WEATHER AND/OR OBSTRUCTIONS TO VISIBILITY.

AZZ001>003-036-152200-
NORTHWEST ARIZONA

CITY           SKY/WX    TMP DP  RH WIND       PRES   REMARKS
BULLHEAD CITY  SUNNY     72  34  25 N16G23    30.06F
KINGMAN        SUNNY     62  33  33 VRB3      30.13F
$$

AZZ004>008-015-016-018-152200-
NORTH CENTRAL ARIZONA

CITY           SKY/WX    TMP DP  RH WIND       PRES   REMARKS
GRAND CANYON   SUNNY     55  25  31 NW5       30.20F
WILLIAMS       SUNNY     57   9  14 W9        30.18F
PRESCOTT       SUNNY     62  24  23 N6        30.15F
FLAGSTAFF      SUNNY     56   5  13 SW13      30.19F
PAYSON         SUNNY     61  18  18 VRB7      30.15F
PAGE           SUNNY     49  30  48 N5        30.19F
$$

AZZ009>014-017-152200-
NORTHEAST ARIZONA

CITY           SKY/WX    TMP DP  RH WIND       PRES   REMARKS
WINSLOW        MOSUNNY   55  22  27 N6        30.16F
SAINT JOHNS    MOSUNNY   55  22  27 NW8       30.15F
WINDOW ROCK    MOSUNNY   55  22  27 CALM      30.15F
SHOW LOW       SUNNY     59  14  17 VRB6      30.18F
$$

AZZ540-542>544-546-548-152200-
GREATER PHOENIX AREA

CITY           SKY/WX    TMP DP  RH WIND       PRES   REMARKS
PHOENIX        MOSUNNY   72  29  20 SW5       30.03F
BUCKEYE        SUNNY     68  37  32 SE6       30.05F
GLENDALE       MOSUNNY   72  32  23 VRB3      30.06F
LUKE AFB       SUNNY     71  29  21 S5        30.03F
DEER VALLEY    SUNNY     71  28  20 S3        30.04F
SCOTTSDALE     SUNNY     71  32  23 VRB3      30.06F
MESA-FALCON    MOSUNNY   70  28  21 CALM      30.05F
CHANDLER       SUNNY     70  30  23 CALM      30.05F
$$

AZZ539-553-152200-
SOUTHWEST MARICOPA COUNTY AND PINAL COUNTY

CITY           SKY/WX    TMP DP  RH WIND       PRES   REMARKS
CASA GRANDE    NOT AVBL
GILA BEND      FAIR      70  33  26 N5        30.04F
$$

AZZ503-504-507>509-152200-
SOUTHEAST ARIZONA

CITY           SKY/WX    TMP DP  RH WIND       PRES   REMARKS
TUCSON         SUNNY     76  21  12 CALM      30.07F
DAVIS-MONTHAN  SUNNY     76  20  12 NW8       30.05F
RYAN FIELD     SUNNY     72  23  16 MISG      30.08F
NOGALES        SUNNY     74  13   9 W12       30.09F
SIERRA VISTA   SUNNY     72  15  11 W9        30.12F
DOUGLAS        SUNNY     70  20  15 MISG      30.10F
SAFFORD        MOSUNNY   65  20  17 W5        30.09F
$$

AZZ532-152200-
SOUTHWEST ARIZONA

CITY           SKY/WX    TMP DP  RH WIND       PRES   REMARKS
YUMA           NOT AVBL
$$

CAZ041-043-047-048-061-525>527-560>570-152200-
SOUTHERN CALIFORNIA

CITY           SKY/WX    TMP DP  RH WIND       PRES   REMARKS
DOWNTOWN L.A.  SUNNY     67  51  56 VRB5      30.08F
L.A. AIRPORT   MOSUNNY   60  54  80 W9        30.10F
SAN DIEGO      PTSUNNY   67  52  58 NW6       30.09F
BURBANK        SUNNY     73  40  30 VRB7      30.07F
ONTARIO        MOSUNNY   73  30  20 W5        30.08F
RIVERSIDE      SUNNY     74  35  24 VRB3      30.08F
PALM SPRINGS   SUNNY     76  32  20 SE3       30.06F
IMPERIAL       SUNNY     77  33  20 NE5       30.02F
BLYTHE         SUNNY     71  36  27 CALM      30.05F
NEEDLES        SUNNY     72  37  28 NE10      30.07F
$$

NVZ020-UTZ003-152200-
SOUTHERN NEVADA-UTAH

CITY           SKY/WX    TMP DP  RH WIND       PRES   REMARKS
LAS VEGAS      MOSUNNY   65  34  31 VRB3      30.12F
SALT LAKE CITY PTSUNNY   47  31  53 NW8       30.28F
$$

NMZ009-TXZ055-152200-
NEW MEXICO-WEST TEXAS

CITY           SKY/WX    TMP DP  RH WIND       PRES   REMARKS
ALBUQUERQUE    PTSUNNY   52  19  27 CALM      30.16F
EL PASO        PTSUNNY   62  23  22 VRB5      30.12F
$$


........................KEY........................
SKY/WX - SKY CONDITION/WEATHER
TMP    - TEMPERATURE IN FAHRENHEIT
DP     - DEW POINT IN FAHRENHEIT
RH     - RELATIVE HUMIDITY IN PERCENT
WIND   - DIRECTION AND SPEED IN MILES PER HOUR (MPH)
VRB    - VARIABLE WIND DIRECTION
PRES   - MEAN SEA LEVEL PRESSURE IN INCHES OF MERCURY
         F - FALLING PRESSURE   R - RISING PRESSURE
         S - STEADY PRESSURE
VSB    - VISIBILITY IN MILES
HX     - HEAT INDEX IN FAHRENHEIT
WCI    - WIND CHILL INDEX IN FAHRENHEIT
TC     - TEMPERATURE IN CELSIUS WHICH IS ALSO KNOWN AS
         TEMPERATURE IN CENTIGRADE
AFB    - AIR FORCE BASE
         LUKE AFB IS LUKE AIR FORCE BASE
         DAVIS-MONTHAN IS DAVIS-MONTHAN AIR FORCE BASE
NAS    - NAVAL AIR STATION
         EL CENTRO NAS IS EL CENTRO NAVAL AIR STATION
N/A    - NOT AVAILABLE





USA.gov is the U.S. government's official web portal to all federal, state and local government web resources and services.